Главная страница
METAR-TAF:

METAR-TAF

Аэропорты :

Belmar / Farmingdale, Нью-Джерси, США

широта: 40-11N, долгота: 074-08W, высота над уровнем моря: 48 м

Текущие метеонаблюдения

Эта сводка был подготовлена 59 минут назад, в 21:56 UTC
Ветер 4 Узел от восточный
Температура 6°C
Влажность 75%
Давление 1026 hPa
Видимость: 16.1 км
Сплошная облачность на высоте 3400 фута

METAR: KBLM 182156Z AUTO 09004KT 10SM OVC034 06/02 A3029 RMK AO2 SLP262 T00610017

Время: 17:55 (22:55 UTC)


TAF: отсутствует

Метеонаблюдения и прогнозы для более 4000 аэропортов (сводки METAR и TAF).

Имеющиеся станции представлены на карте желтыми и красными точками.

Чтобы увидеть название станции, наведите на нее мышь.

Затем щелкните, чтобы увидеть метеонаблюдения и метеопрогнозы.

Управление картой: чтобы увеличить масштаб, щелкните зеленые кнопки с черным крестиком; чтобы уменьшить масштаб, щелкните зеленую кнопку с тире; для просмотра соседних карт щелкайте зеленые стрелки.


METAR-TAF: